,,Stat6,,Stat2,,Stat8,,Stat9,,Stat10,,Wind1,,Wind1,
time,status,PA1M_AVG,status,PR1M_SUM,status,RH1M_AVG,status,SR1M_AVG,status,TA1M_AVG,status,W1dAve1m,status,W1sAve1m,
2008-04-04, 00:00:00,VALID,917.571,VALID,0,VALID,100,VALID,-0.0169808,VALID,18.5537,VALID,250,VALID,0,
2008-04-04, 00:01:00,VALID,917.555,VALID,0,VALID,100,VALID,-0.0169808,VALID,18.5238,VALID,250,VALID,0,
2008-04-04, 00:02:00,VALID,917.537,VALID,0,VALID,100,VALID,-0.0169808,VALID,18.5176,VALID,250,VALID,0,
2008-04-04, 00:03:00,VALID,917.524,VALID,0,VALID,100,VALID,-0.0169808,VALID,18.4981,VALID,250,VALID,0,
2008-04-04, 00:04:00,VALID,917.502,VALID,0,VALID,100,VALID,-0.0169808,VALID,18.4395,VALID,250,VALID,0,
2008-04-04, 00:05:00,VALID,917.459,VALID,0,VALID,100,VALID,-0.0169808,VALID,18.42,VALID,250,VALID,0,
2008-04-04, 00:06:00,VALID,917.446,VALID,0,VALID,100,VALID,0,VALID,18.3971,VALID,250,VALID,0,
2008-04-04, 00:07:00,VALID,917.429,VALID,0,VALID,100,VALID,0,VALID,18.3876,VALID,250,VALID,0,
2008-04-04, 00:08:00,VALID,917.42,VALID,0,VALID,100,VALID,-0.0169808,VALID,18.3033,VALID,250,VALID,0,
2008-04-04, 00:09:00,VALID,917.408,VALID,0,VALID,100,VALID,0,VALID,18.2838,VALID,250,VALID,0,
2008-04-04, 00:10:00,VALID,917.405,VALID,0,VALID,100,VALID,0,VALID,18.2771,VALID,250,VALID,0,
2008-04-04, 00:11:00,VALID,917.392,VALID,0,VALID,100,VALID,0,VALID,18.177,VALID,250,VALID,0,
2008-04-04, 00:12:00,VALID,917.38,VALID,0,VALID,100,VALID,-0.0169808,VALID,18.086,VALID,250,VALID,0,
2008-04-04, 00:13:00,VALID,917.362,VALID,0,VALID,100,VALID,0,VALID,18.0471,VALID,250,VALID,0,
2008-04-04, 00:14:00,VALID,917.35,VALID,0,VALID,100,VALID,0.0169808,VALID,18.0696,VALID,250,VALID,0,
2008-04-04, 00:15:00,VALID,917.339,VALID,0,VALID,100,VALID,0.0169808,VALID,18.1117,VALID,250,VALID,0,
2008-04-04, 00:16:00,VALID,917.321,VALID,0,VALID,100,VALID,0,VALID,18.115,VALID,250,VALID,0,
2008-04-04, 00:17:00,VALID,917.312,VALID,0,VALID,100,VALID,0.0169808,VALID,18.0987,VALID,250,VALID,0,
2008-04-04, 00:18:00,VALID,917.297,VALID,0,VALID,100,VALID,0,VALID,18.1569,VALID,250,VALID,0,
2008-04-04, 00:19:00,VALID,917.307,VALID,0,VALID,100,VALID,-0.0169808,VALID,18.1993,VALID,250,VALID,0,
2008-04-04, 00:20:00,VALID,917.307,VALID,0,VALID,100,VALID,-0.0169808,VALID,18.2386,VALID,250,VALID,0,
2008-04-04, 00:21:00,VALID,917.294,VALID,0,VALID,100,VALID,-0.0169808,VALID,18.2356,VALID,250,VALID,0,
2008-04-04, 00:22:00,VALID,917.297,VALID,0,VALID,100,VALID,-0.0339617,VALID,18.2417,VALID,250,VALID,0,
2008-04-04, 00:23:00,VALID,917.298,VALID,0,VALID,100,VALID,-0.0849042,VALID,18.2646,VALID,250,VALID,0,
2008-04-04, 00:24:00,VALID,917.294,VALID,0,VALID,100,VALID,-0.0169808,VALID,18.2641,VALID,250,VALID,0,
2008-04-04, 00:25:00,VALID,917.291,VALID,0,VALID,100,VALID,-0.0169808,VALID,18.2806,VALID,250,VALID,0,
2008-04-04, 00:26:00,VALID,917.299,VALID,0,VALID,100,VALID,-0.0339617,VALID,18.2352,VALID,250,VALID,0,
2008-04-04, 00:27:00,VALID,917.291,VALID,0,VALID,100,VALID,0,VALID,18.2157,VALID,250,VALID,0,
2008-04-04, 00:28:00,VALID,917.264,VALID,0,VALID,100,VALID,0,VALID,18.1509,VALID,250,VALID,0,
2008-04-04, 00:29:00,VALID,917.257,VALID,0,VALID,100,VALID,-0.0169808,VALID,18.0306,VALID,250,VALID,0,
2008-04-04, 00:30:00,VALID,917.231,VALID,0,VALID,100,VALID,-0.0509425,VALID,17.9732,VALID,250,VALID,0,
2008-04-04, 00:31:00,VALID,917.196,VALID,0,VALID,100,VALID,-0.0339617,VALID,17.9144,VALID,250,VALID,0,
2008-04-04, 00:32:00,VALID,917.179,VALID,0,VALID,100,VALID,-0.0169808,VALID,17.8785,VALID,22,VALID,0,
2008-04-04, 00:33:00,VALID,917.144,VALID,0,VALID,100,VALID,-0.0509425,VALID,17.9593,VALID,40,VALID,0,
2008-04-04, 00:34:00,VALID,917.121,VALID,0,VALID,100,VALID,-0.0679233,VALID,18.0473,VALID,40,VALID,0,
2008-04-04, 00:35:00,VALID,917.111,VALID,0,VALID,100,VALID,-0.0679233,VALID,18.1541,VALID,40,VALID,0,
2008-04-04, 00:36:00,VALID,917.09,VALID,0,VALID,100,VALID,-0.0509425,VALID,18.2287,VALID,40,VALID,0,
2008-04-04, 00:37:00,VALID,917.068,VALID,0,VALID,100,VALID,0,VALID,18.31,VALID,40,VALID,0,
2008-04-04, 00:38:00,VALID,917.051,VALID,0,VALID,100,VALID,-0.0339617,VALID,18.3389,VALID,40,VALID,0,
2008-04-04, 00:39:00,VALID,917.032,VALID,0,VALID,100,VALID,-0.0679233,VALID,18.3589,VALID,40,VALID,0,
2008-04-04, 00:40:00,VALID,917.01,VALID,0,VALID,100,VALID,-0.0679233,VALID,18.3876,VALID,40,VALID,0,
2008-04-04, 00:41:00,VALID,916.998,VALID,0,VALID,100,VALID,-0.0339617,VALID,18.4105,VALID,40,VALID,0,
2008-04-04, 00:42:00,VALID,916.974,VALID,0,VALID,100,VALID,-0.0169808,VALID,18.4071,VALID,40,VALID,0,
2008-04-04, 00:43:00,VALID,916.948,VALID,0,VALID,100,VALID,0,VALID,18.3971,VALID,40,VALID,0,
2008-04-04, 00:44:00,VALID,916.935,VALID,0,VALID,100,VALID,-0.0679233,VALID,18.3644,VALID,40,VALID,0,
2008-04-04, 00:45:00,VALID,916.926,VALID,0,VALID,100,VALID,-0.0339617,VALID,18.3387,VALID,40,VALID,0,
2008-04-04, 00:46:00,VALID,916.909,VALID,0,VALID,99.9596,VALID,0,VALID,18.2574,VALID,40,VALID,0,
2008-04-04, 00:47:00,VALID,916.898,VALID,0,VALID,100,VALID,-0.0169808,VALID,18.2285,VALID,40,VALID,0,
2008-04-04, 00:48:00,VALID,916.886,VALID,0,VALID,100,VALID,0,VALID,18.222,VALID,40,VALID,0,
2008-04-04, 00:49:00,VALID,916.894,VALID,0,VALID,100,VALID,0,VALID,18.2322,VALID,40,VALID,0,
2008-04-04, 00:50:00,VALID,916.879,VALID,0,VALID,100,VALID,-0.0679233,VALID,18.2444,VALID,40,VALID,0,
2008-04-04, 00:51:00,VALID,916.873,VALID,0,VALID,100,VALID,-0.0679233,VALID,18.2546,VALID,40,VALID,0,
2008-04-04, 00:52:00,VALID,916.867,VALID,0,VALID,100,VALID,0,VALID,18.2676,VALID,40,VALID,0,
2008-04-04, 00:53:00,VALID,916.858,VALID,0,VALID,100,VALID,-0.0339617,VALID,18.3128,VALID,40,VALID,0,
2008-04-04, 00:54:00,VALID,916.854,VALID,0,VALID,100,VALID,-0.0339617,VALID,18.3651,VALID,40,VALID,0,
2008-04-04, 00:55:00,VALID,916.837,VALID,0,VALID,100,VALID,-0.0509425,VALID,18.3781,VALID,40,VALID,0,
2008-04-04, 00:56:00,VALID,916.834,VALID,0,VALID,100,VALID,-0.0509425,VALID,18.3679,VALID,40,VALID,0,
2008-04-04, 00:57:00,VALID,916.829,VALID,0,VALID,99.9372,VALID,-0.0339617,VALID,18.2901,VALID,40,VALID,0,
2008-04-04, 00:58:00,VALID,916.814,VALID,0,VALID,100,VALID,-0.0339617,VALID,18.2706,VALID,40,VALID,0,
2008-04-04, 00:59:00,VALID,916.814,VALID,0,VALID,100,VALID,-0.0169808,VALID,18.3482,VALID,25,VALID,0,
2008-04-04, 01:00:00,VALID,916.79,VALID,0,VALID,100,VALID,0,VALID,18.3906,VALID,23,VALID,0,
2008-04-04, 01:01:00,VALID,916.769,VALID,0,VALID,99.9817,VALID,-0.0169808,VALID,18.4036,VALID,27,VALID,0,
2008-04-04, 01:02:00,VALID,916.758,VALID,0,VALID,99.7892,VALID,0,VALID,18.4233,VALID,32,VALID,0,
2008-04-04, 01:03:00,VALID,916.752,VALID,0,VALID,99.587,VALID,-0.0169808,VALID,18.4135,VALID,32,VALID,0,
2008-04-04, 01:04:00,VALID,916.742,VALID,0,VALID,99.4764,VALID,-0.0169808,VALID,18.4168,VALID,32,VALID,0,
2008-04-04, 01:05:00,VALID,916.738,VALID,0,VALID,99.367,VALID,-0.0169808,VALID,18.4165,VALID,32,VALID,0,
2008-04-04, 01:06:00,VALID,916.742,VALID,0,VALID,99.2971,VALID,0,VALID,18.4068,VALID,32,VALID,0,
2008-04-04, 01:07:00,VALID,916.701,VALID,0,VALID,99.2462,VALID,-0.0169808,VALID,18.3969,VALID,32,VALID,0,
2008-04-04, 01:08:00,VALID,916.689,VALID,0,VALID,99.2297,VALID,0,VALID,18.4108,VALID,32,VALID,0,
2008-04-04, 01:09:00,VALID,916.677,VALID,0,VALID,99.456,VALID,-0.0169808,VALID,18.4687,VALID,32,VALID,0,
2008-04-04, 01:10:00,VALID,916.665,VALID,0,VALID,99.4242,VALID,-0.0169808,VALID,18.54,VALID,32,VALID,0,
2008-04-04, 01:11:00,VALID,916.676,VALID,0,VALID,99.0733,VALID,0,VALID,18.5595,VALID,32,VALID,0,
2008-04-04, 01:12:00,VALID,916.674,VALID,0,VALID,98.721,VALID,-0.0509425,VALID,18.527,VALID,32,VALID,0,
2008-04-04, 01:13:00,VALID,916.662,VALID,0,VALID,98.4705,VALID,-0.0679233,VALID,18.4918,VALID,32,VALID,0,
2008-04-04, 01:14:00,VALID,916.627,VALID,0,VALID,98.3815,VALID,-0.0509425,VALID,18.4365,VALID,32,VALID,0,
2008-04-04, 01:15:00,VALID,916.617,VALID,0,VALID,98.4209,VALID,-0.101885,VALID,18.4006,VALID,32,VALID,0,
2008-04-04, 01:16:00,VALID,916.598,VALID,0,VALID,98.3103,VALID,-0.0169808,VALID,18.3679,VALID,32,VALID,0,
2008-04-04, 01:17:00,VALID,916.568,VALID,0,VALID,98.2645,VALID,-0.0509425,VALID,18.3162,VALID,32,VALID,0,
2008-04-04, 01:18:00,VALID,916.542,VALID,0,VALID,98.4896,VALID,-0.0509425,VALID,18.3095,VALID,32,VALID,0,
2008-04-04, 01:19:00,VALID,916.525,VALID,0,VALID,98.1526,VALID,-0.0169808,VALID,18.2514,VALID,32,VALID,0,
2008-04-04, 01:20:00,VALID,916.517,VALID,0,VALID,98.6943,VALID,-0.0169808,VALID,18.2382,VALID,32,VALID,0,
2008-04-04, 01:21:00,VALID,916.527,VALID,0,VALID,98.8533,VALID,-0.0679233,VALID,18.2609,VALID,32,VALID,0,
2008-04-04, 01:22:00,VALID,916.517,VALID,0,VALID,99.0084,VALID,-0.0169808,VALID,18.2903,VALID,32,VALID,0,
2008-04-04, 01:23:00,VALID,916.517,VALID,0,VALID,98.9346,VALID,-0.0679233,VALID,18.2873,VALID,32,VALID,0,
2008-04-04, 01:24:00,VALID,916.514,VALID,0,VALID,98.7808,VALID,-0.0339617,VALID,18.2574,VALID,32,VALID,0,
2008-04-04, 01:25:00,VALID,916.53,VALID,0,VALID,98.674,VALID,-0.0509425,VALID,18.2222,VALID,31,VALID,0,
2008-04-04, 01:26:00,VALID,916.51,VALID,0,VALID,98.9016,VALID,-0.0169808,VALID,18.2157,VALID,25,VALID,0,
2008-04-04, 01:27:00,VALID,916.518,VALID,0,VALID,99.0555,VALID,-0.0169808,VALID,18.206,VALID,25,VALID,0,
2008-04-04, 01:28:00,VALID,916.515,VALID,0,VALID,99.3009,VALID,-0.0679233,VALID,18.2187,VALID,360,VALID,0,
2008-04-04, 01:29:00,VALID,916.508,VALID,0,VALID,99.5692,VALID,-0.0679233,VALID,18.2644,VALID,21,VALID,0,
2008-04-04, 01:30:00,VALID,916.484,VALID,0,VALID,99.6696,VALID,-0.0169808,VALID,18.284,VALID,22,VALID,0.442522,
2008-04-04, 01:31:00,VALID,916.48,VALID,0,VALID,99.5806,VALID,-0.0509425,VALID,18.2512,VALID,32,VALID,1.03385,
2008-04-04, 01:32:00,VALID,916.465,VALID,0,VALID,99.4891,VALID,-0.0169808,VALID,18.228,VALID,27,VALID,0.840625,
2008-04-04, 01:33:00,VALID,916.441,VALID,0,VALID,99.6862,VALID,-0.0169808,VALID,18.2289,VALID,14,VALID,0.556734,
2008-04-04, 01:34:00,VALID,916.402,VALID,0,VALID,99.9901,VALID,-0.0849042,VALID,18.2641,VALID,333,VALID,0.0910156,
2008-04-04, 01:35:00,VALID,916.366,VALID,0,VALID,100,VALID,-0.0509425,VALID,18.313,VALID,353,VALID,0.178416,
2008-04-04, 01:36:00,VALID,916.36,VALID,0,VALID,99.9952,VALID,-0.0679233,VALID,18.3424,VALID,10,VALID,0.368096,
2008-04-04, 01:37:00,VALID,916.345,VALID,0,VALID,99.8375,VALID,-0.0849042,VALID,18.31,VALID,15,VALID,0.0363372,
2008-04-04, 01:38:00,VALID,916.355,VALID,0,VALID,99.7103,VALID,-0.0169808,VALID,18.2741,VALID,15,VALID,0.163681,
2008-04-04, 01:39:00,VALID,916.343,VALID,0,VALID,99.9738,VALID,-0.0339617,VALID,18.2644,VALID,14,VALID,0.0821221,
2008-04-04, 01:40:00,VALID,916.345,VALID,0,VALID,100,VALID,-0.0339617,VALID,18.2771,VALID,14,VALID,0,
2008-04-04, 01:41:00,VALID,916.338,VALID,0,VALID,100,VALID,-0.0509425,VALID,18.2966,VALID,14,VALID,0.010831,
2008-04-04, 01:42:00,VALID,916.324,VALID,0,VALID,99.8789,VALID,-0.0339617,VALID,18.2479,VALID,20,VALID,0.0730469,
2008-04-04, 01:43:00,VALID,916.307,VALID,0,VALID,99.6315,VALID,-0.0339617,VALID,18.1604,VALID,36,VALID,0.110206,
2008-04-04, 01:44:00,VALID,916.284,VALID,0,VALID,100,VALID,-0.0509425,VALID,18.1794,VALID,33,VALID,1.64729,
2008-04-04, 01:45:00,VALID,916.311,VALID,0,VALID,99.9573,VALID,0,VALID,18.2148,VALID,12,VALID,0.842607,
2008-04-04, 01:46:00,VALID,916.315,VALID,0,VALID,99.9359,VALID,-0.0339617,VALID,18.209,VALID,314,VALID,0.435138,
2008-04-04, 01:47:00,VALID,916.318,VALID,0,VALID,100,VALID,-0.0169808,VALID,18.2704,VALID,268,VALID,0,
2008-04-04, 01:48:00,VALID,916.312,VALID,0,VALID,100,VALID,-0.0169808,VALID,18.3,VALID,348,VALID,0.101381,
2008-04-04, 01:49:00,VALID,916.313,VALID,0,VALID,100,VALID,-0.0509425,VALID,18.2546,VALID,24,VALID,0.154916,
2008-04-04, 01:50:00,VALID,916.308,VALID,0,VALID,100,VALID,-0.0339617,VALID,18.2544,VALID,49,VALID,0.390811,
2008-04-04, 01:51:00,VALID,916.337,VALID,0,VALID,100,VALID,-0.0339617,VALID,18.2741,VALID,42,VALID,0.0623224,
2008-04-04, 01:52:00,VALID,916.326,VALID,0,VALID,100,VALID,-0.101885,VALID,18.2901,VALID,8,VALID,0.502308,
2008-04-04, 01:53:00,VALID,916.322,VALID,0,VALID,99.9652,VALID,0,VALID,18.3093,VALID,21,VALID,0.710747,
2008-04-04, 01:54:00,VALID,916.32,VALID,0,VALID,99.7561,VALID,-0.0339617,VALID,18.3227,VALID,31,VALID,0.801897,
2008-04-04, 01:55:00,VALID,916.317,VALID,0,VALID,99.5959,VALID,-0.0339617,VALID,18.3227,VALID,50,VALID,0.886628,
2008-04-04, 01:56:00,VALID,916.316,VALID,0,VALID,99.5857,VALID,-0.0339617,VALID,18.3517,VALID,70,VALID,1.0359,
2008-04-04, 01:57:00,VALID,916.323,VALID,0,VALID,99.3492,VALID,0,VALID,18.3649,VALID,77,VALID,0.743963,
2008-04-04, 01:58:00,VALID,916.329,VALID,0,VALID,99.1635,VALID,-0.0509425,VALID,18.3519,VALID,83,VALID,0.173295,
2008-04-04, 01:59:00,VALID,916.327,VALID,0,VALID,98.9296,VALID,-0.0169808,VALID,18.3128,VALID,107,VALID,0,
2008-04-04, 02:00:00,VALID,916.341,VALID,0,VALID,98.9092,VALID,0,VALID,18.2412,VALID,112,VALID,0,
2008-04-04, 02:01:01,VALID,916.333,VALID,0,VALID,99.0453,VALID,-0.0169808,VALID,18.1798,VALID,112,VALID,0.442649,
2008-04-04, 02:02:00,VALID,916.317,VALID,0,VALID,99.4115,VALID,-0.0509425,VALID,18.1187,VALID,112,VALID,1.23964,
2008-04-04, 02:03:01,VALID,916.318,VALID,0,VALID,99.9334,VALID,-0.0169808,VALID,18.0987,VALID,105,VALID,1.43695,
2008-04-04, 02:04:00,VALID,916.334,VALID,0,VALID,100,VALID,0,VALID,18.0855,VALID,115,VALID,0.759375,
2008-04-04, 02:05:00,VALID,916.355,VALID,0,VALID,100,VALID,0,VALID,18.0536,VALID,2,VALID,0.118823,
2008-04-04, 02:06:00,VALID,916.365,VALID,0,VALID,100,VALID,0,VALID,17.9788,VALID,313,VALID,0.201601,
2008-04-04, 02:07:00,VALID,916.358,VALID,0,VALID,100,VALID,-0.0169808,VALID,17.9558,VALID,306,VALID,0,
2008-04-04, 02:08:00,VALID,916.34,VALID,0,VALID,100,VALID,-0.0339617,VALID,17.9785,VALID,179,VALID,0.226944,
2008-04-04, 02:09:00,VALID,916.332,VALID,0,VALID,100,VALID,0.0169808,VALID,17.9915,VALID,163,VALID,0.195313,
2008-04-04, 02:10:01,VALID,916.308,VALID,0,VALID,100,VALID,0.0169808,VALID,18.0042,VALID,178,VALID,0.525436,
2008-04-04, 02:11:01,VALID,916.297,VALID,0,VALID,100,VALID,0,VALID,18.0371,VALID,156,VALID,0.724414,
2008-04-04, 02:12:00,VALID,916.274,VALID,0,VALID,100,VALID,-0.0169808,VALID,18.0987,VALID,126,VALID,0.308494,
2008-04-04, 02:13:00,VALID,916.259,VALID,0,VALID,100,VALID,0,VALID,18.1275,VALID,126,VALID,0,
2008-04-04, 02:14:01,VALID,916.237,VALID,0,VALID,100,VALID,-0.0509425,VALID,18.1634,VALID,126,VALID,0,
2008-04-04, 02:15:00,VALID,916.22,VALID,0,VALID,100,VALID,-0.0679233,VALID,18.1444,VALID,141,VALID,0.396257,
2008-04-04, 02:16:00,VALID,916.185,VALID,0,VALID,100,VALID,-0.0509425,VALID,18.1117,VALID,153,VALID,0.850361,
2008-04-04, 02:17:00,VALID,916.169,VALID,0,VALID,100,VALID,-0.0169808,VALID,18.0923,VALID,157,VALID,0.751758,
2008-04-04, 02:18:00,VALID,916.156,VALID,0,VALID,100,VALID,-0.0169808,VALID,18.0858,VALID,171,VALID,0.653274,
2008-04-04, 02:19:00,VALID,916.13,VALID,0,VALID,100,VALID,0,VALID,18.0663,VALID,171,VALID,0.207589,
2008-04-04, 02:20:00,VALID,916.128,VALID,0,VALID,100,VALID,0,VALID,18.0339,VALID,171,VALID,0,
2008-04-04, 02:21:01,VALID,916.13,VALID,0,VALID,100,VALID,-0.0169808,VALID,18.0112,VALID,165,VALID,0,
2008-04-04, 02:22:00,VALID,916.119,VALID,0,VALID,100,VALID,-0.0339617,VALID,18.0079,VALID,164,VALID,0,
2008-04-04, 02:23:01,VALID,916.114,VALID,0,VALID,100,VALID,-0.0169808,VALID,18.0082,VALID,164,VALID,0,
2008-04-04, 02:24:00,VALID,916.113,VALID,0,VALID,100,VALID,-0.0169808,VALID,18.0177,VALID,164,VALID,0,
2008-04-04, 02:25:00,VALID,916.116,VALID,0,VALID,100,VALID,-0.0169808,VALID,18.0205,VALID,164,VALID,0,
2008-04-04, 02:26:00,VALID,916.11,VALID,0,VALID,100,VALID,0,VALID,18.0309,VALID,164,VALID,0,
2008-04-04, 02:27:01,VALID,916.108,VALID,0,VALID,100,VALID,0,VALID,18.0269,VALID,164,VALID,0,
2008-04-04, 02:28:00,VALID,916.095,VALID,0,VALID,100,VALID,-0.0169808,VALID,18.0469,VALID,164,VALID,0,
2008-04-04, 02:29:01,VALID,916.085,VALID,0,VALID,100,VALID,-0.0169808,VALID,18.0601,VALID,164,VALID,0,
2008-04-04, 02:30:01,VALID,916.081,VALID,0,VALID,100,VALID,-0.0339617,VALID,18.0274,VALID,164,VALID,0,
2008-04-04, 02:31:01,VALID,916.061,VALID,0,VALID,100,VALID,-0.0339617,VALID,18.0047,VALID,164,VALID,0,
2008-04-04, 02:32:01,VALID,916.074,VALID,0,VALID,100,VALID,-0.0339617,VALID,17.9818,VALID,164,VALID,0,
2008-04-04, 02:33:00,VALID,916.052,VALID,0,VALID,100,VALID,-0.0339617,VALID,17.9725,VALID,164,VALID,0,
2008-04-04, 02:34:00,VALID,916.054,VALID,0,VALID,100,VALID,0,VALID,17.9852,VALID,164,VALID,0,
2008-04-04, 02:35:00,VALID,916.052,VALID,0,VALID,100,VALID,-0.0679233,VALID,18.0177,VALID,164,VALID,0,
2008-04-04, 02:36:00,VALID,916.048,VALID,0,VALID,100,VALID,-0.0169808,VALID,18.0631,VALID,164,VALID,0,
2008-04-04, 02:37:00,VALID,916.035,VALID,0,VALID,100,VALID,0,VALID,18.0661,VALID,164,VALID,0,
2008-04-04, 02:38:00,VALID,916.029,VALID,0,VALID,100,VALID,0,VALID,18.0793,VALID,164,VALID,0,
2008-04-04, 02:39:00,VALID,916.007,VALID,0,VALID,100,VALID,-0.0339617,VALID,18.1314,VALID,164,VALID,0,
2008-04-04, 02:40:00,VALID,915.972,VALID,0,VALID,100,VALID,-0.0169808,VALID,18.1895,VALID,164,VALID,0,
2008-04-04, 02:41:00,VALID,915.961,VALID,0,VALID,100,VALID,-0.0169808,VALID,18.2187,VALID,164,VALID,0,
2008-04-04, 02:42:00,VALID,915.929,VALID,0,VALID,100,VALID,-0.0169808,VALID,18.2155,VALID,164,VALID,0,
2008-04-04, 02:43:00,VALID,915.929,VALID,0,VALID,100,VALID,-0.0169808,VALID,18.1668,VALID,164,VALID,0,
2008-04-04, 02:44:00,VALID,915.904,VALID,0,VALID,100,VALID,-0.0169808,VALID,18.1474,VALID,164,VALID,0,
2008-04-04, 02:45:00,VALID,915.907,VALID,0,VALID,100,VALID,-0.0339617,VALID,18.1314,VALID,164,VALID,0,
2008-04-04, 02:46:00,VALID,915.899,VALID,0,VALID,100,VALID,-0.0339617,VALID,18.0142,VALID,164,VALID,0,
2008-04-04, 02:47:01,VALID,915.876,VALID,0,VALID,100,VALID,-0.0339617,VALID,17.881,VALID,62,VALID,0,
2008-04-04, 02:48:01,VALID,915.847,VALID,0,VALID,100,VALID,-0.0169808,VALID,17.8037,VALID,58,VALID,0,
2008-04-04, 02:49:00,VALID,915.823,VALID,0,VALID,100,VALID,-0.0169808,VALID,17.8326,VALID,49,VALID,1.00836,
2008-04-04, 02:50:01,VALID,915.809,VALID,0,VALID,100,VALID,0,VALID,17.9074,VALID,31,VALID,1.06232,
2008-04-04, 02:51:00,VALID,915.793,VALID,0,VALID,100,VALID,-0.0169808,VALID,18.0211,VALID,32,VALID,1.27604,
2008-04-04, 02:52:00,VALID,915.784,VALID,0,VALID,100,VALID,0,VALID,18.0948,VALID,43,VALID,1.18862,
2008-04-04, 02:53:00,VALID,915.772,VALID,0,VALID,100,VALID,0,VALID,18.1701,VALID,49,VALID,0.825781,
2008-04-04, 02:54:01,VALID,915.782,VALID,0,VALID,100,VALID,-0.0169808,VALID,18.1506,VALID,45,VALID,0.6609,
2008-04-04, 02:55:01,VALID,915.776,VALID,0,VALID,100,VALID,-0.0169808,VALID,18.0955,VALID,39,VALID,0.608467,
2008-04-04, 02:56:01,VALID,915.788,VALID,0,VALID,100,VALID,-0.0169808,VALID,18.0691,VALID,37,VALID,0.833734,
2008-04-04, 02:57:01,VALID,915.783,VALID,0,VALID,100,VALID,0,VALID,18.1147,VALID,25,VALID,0.739062,
2008-04-04, 02:58:01,VALID,915.795,VALID,0,VALID,100,VALID,-0.0169808,VALID,18.0983,VALID,25,VALID,0.730945,
2008-04-04, 02:59:01,VALID,915.791,VALID,0,VALID,100,VALID,0,VALID,18.0918,VALID,25,VALID,0.291424,
2008-04-04, 03:00:01,VALID,915.767,VALID,0,VALID,100,VALID,-0.0169808,VALID,18.0726,VALID,25,VALID,0,
2008-04-04, 03:01:01,VALID,915.759,VALID,0,VALID,100,VALID,-0.0169808,VALID,18.0825,VALID,25,VALID,0,
2008-04-04, 03:02:00,VALID,915.756,VALID,0,VALID,100,VALID,-0.0169808,VALID,18.0598,VALID,25,VALID,0,
2008-04-04, 03:03:00,VALID,915.741,VALID,0,VALID,100,VALID,-0.0509425,VALID,18.0469,VALID,39,VALID,0.17242,
2008-04-04, 03:04:00,VALID,915.745,VALID,0,VALID,100,VALID,-0.0169808,VALID,18.0793,VALID,63,VALID,0.300959,
2008-04-04, 03:05:00,VALID,915.743,VALID,0,VALID,100,VALID,-0.0849042,VALID,18.054,VALID,63,VALID,0,
2008-04-04, 03:06:00,VALID,915.747,VALID,0,VALID,100,VALID,-0.101885,VALID,18.0251,VALID,62,VALID,0.0291193,
2008-04-04, 03:07:00,VALID,915.772,VALID,0,VALID,100,VALID,-0.101885,VALID,18.0153,VALID,55,VALID,0,
2008-04-04, 03:08:00,VALID,915.798,VALID,0,VALID,100,VALID,-0.101885,VALID,18.0188,VALID,14,VALID,0.25218,
2008-04-04, 03:09:00,VALID,915.793,VALID,0,VALID,100,VALID,-0.118866,VALID,18.0577,VALID,19,VALID,0.795015,
2008-04-04, 03:10:00,VALID,915.773,VALID,0,VALID,100,VALID,-0.101885,VALID,18.0642,VALID,23,VALID,0.0340909,
2008-04-04, 03:11:00,VALID,915.766,VALID,0,VALID,100,VALID,-0.101885,VALID,18.0478,VALID,17,VALID,0.20332,
2008-04-04, 03:12:00,VALID,915.736,VALID,0,VALID,100,VALID,-0.101885,VALID,18.0642,VALID,14,VALID,0.544531,
2008-04-04, 03:13:00,VALID,915.727,VALID,0,VALID,100,VALID,-0.101885,VALID,18.0934,VALID,40,VALID,0.305575,
2008-04-04, 03:14:00,VALID,915.687,VALID,0,VALID,100,VALID,-0.118866,VALID,18.0964,VALID,25,VALID,0.452363,
2008-04-04, 03:15:00,VALID,915.675,VALID,0,VALID,100,VALID,-0.101885,VALID,18.1163,VALID,23,VALID,0.0124628,
2008-04-04, 03:16:00,VALID,915.654,VALID,0,VALID,100,VALID,-0.118866,VALID,18.1161,VALID,23,VALID,0,
2008-04-04, 03:17:00,VALID,915.637,VALID,0,VALID,100,VALID,-0.101885,VALID,18.1098,VALID,23,VALID,0,
2008-04-04, 03:18:00,VALID,915.647,VALID,0,VALID,100,VALID,-0.118866,VALID,18.1029,VALID,23,VALID,0,
2008-04-04, 03:19:00,VALID,915.656,VALID,0,VALID,100,VALID,-0.101885,VALID,18.077,VALID,23,VALID,0,
2008-04-04, 03:20:00,VALID,915.688,VALID,0,VALID,100,VALID,-0.0509425,VALID,18.0663,VALID,23,VALID,0,
2008-04-04, 03:21:00,VALID,915.702,VALID,0,VALID,100,VALID,0,VALID,18.0306,VALID,23,VALID,0,
2008-04-04, 03:22:00,VALID,915.716,VALID,0,VALID,100,VALID,0.0169808,VALID,18.0239,VALID,23,VALID,0,
2008-04-04, 03:23:00,VALID,915.722,VALID,0,VALID,100,VALID,-0.0339617,VALID,18.0239,VALID,23,VALID,0,
2008-04-04, 03:24:00,VALID,915.712,VALID,0,VALID,100,VALID,-0.0339617,VALID,18.089,VALID,23,VALID,0,
2008-04-04, 03:25:00,VALID,915.706,VALID,0,VALID,100,VALID,-0.0169808,VALID,18.1599,VALID,23,VALID,0,
2008-04-04, 03:26:00,VALID,915.714,VALID,0,VALID,100,VALID,0,VALID,18.2252,VALID,23,VALID,0.0727896,
2008-04-04, 03:27:00,VALID,915.719,VALID,0,VALID,100,VALID,-0.0509425,VALID,18.2312,VALID,23,VALID,0.110119,
2008-04-04, 03:28:00,VALID,915.717,VALID,0,VALID,100,VALID,-0.0339617,VALID,18.2382,VALID,27,VALID,0.444741,
2008-04-04, 03:29:00,VALID,915.721,VALID,0,VALID,100,VALID,-0.0339617,VALID,18.2384,VALID,29,VALID,0.344122,
2008-04-04, 03:30:00,VALID,915.762,VALID,0,VALID,100,VALID,-0.0339617,VALID,18.2125,VALID,29,VALID,0,
2008-04-04, 03:31:00,VALID,915.762,VALID,0,VALID,100,VALID,-0.0169808,VALID,18.18,VALID,29,VALID,0,
2008-04-04, 03:32:00,VALID,915.763,VALID,0,VALID,100,VALID,-0.0339617,VALID,18.1279,VALID,29,VALID,0,
2008-04-04, 03:33:00,VALID,915.759,VALID,0,VALID,100,VALID,-0.0169808,VALID,18.0987,VALID,16,VALID,0,
2008-04-04, 03:34:00,VALID,915.755,VALID,0,VALID,100,VALID,-0.0169808,VALID,18.0661,VALID,14,VALID,0,
2008-04-04, 03:35:00,VALID,915.748,VALID,0,VALID,100,VALID,-0.0169808,VALID,18.0207,VALID,14,VALID,0,
2008-04-04, 03:36:00,VALID,915.729,VALID,0,VALID,100,VALID,-0.0169808,VALID,17.9653,VALID,14,VALID,0,
2008-04-04, 03:37:00,VALID,915.742,VALID,0,VALID,100,VALID,-0.0169808,VALID,18.0177,VALID,14,VALID,0,
2008-04-04, 03:38:00,VALID,915.745,VALID,0,VALID,100,VALID,0,VALID,18.0598,VALID,14,VALID,0,
2008-04-04, 03:39:00,VALID,915.748,VALID,0,VALID,100,VALID,0,VALID,18.1052,VALID,14,VALID,0,
2008-04-04, 03:40:00,VALID,915.744,VALID,0,VALID,100,VALID,-0.0169808,VALID,18.1895,VALID,14,VALID,0,
2008-04-04, 03:41:00,VALID,915.755,VALID,0,VALID,100,VALID,0,VALID,18.2183,VALID,14,VALID,0,
2008-04-04, 03:42:00,VALID,915.75,VALID,0,VALID,100,VALID,0,VALID,18.1435,VALID,14,VALID,0,
2008-04-04, 03:43:00,VALID,915.743,VALID,0,VALID,100,VALID,0,VALID,18.0953,VALID,14,VALID,0,
2008-04-04, 03:44:00,VALID,915.734,VALID,0,VALID,100,VALID,0,VALID,17.9359,VALID,14,VALID,0,
2008-04-04, 03:45:00,VALID,915.718,VALID,0,VALID,100,VALID,0,VALID,17.9172,VALID,20,VALID,0,
2008-04-04, 03:46:00,VALID,915.714,VALID,0,VALID,100,VALID,0,VALID,17.9975,VALID,44,VALID,0.614644,
2008-04-04, 03:47:00,VALID,915.707,VALID,0,VALID,100,VALID,0,VALID,18.0788,VALID,43,VALID,0.619093,